This demonstration page uses our WeatherBlox Daily Observations layout. Learn more.

Hourly Observations for October 23, 2020

Temp ( °F °C ) Dew Point ( °F °C ) Humidity (%) Winds ( mph kmh ) Pressure ( in mb ) Visibility ( mi km ) Precip ( " mm )
12:24 am 00:24 Cloudy with Light Snow 27 -2.8 24 -4.4 89 89 N 9 15 30.53 1034 6 9.65604 0.001 0.001
12:53 am 00:53 Cloudy 26 -3.3 23 -5 88 88 NNE 13 20 30.45 1031 10 16.0934 0.001 0.001
1:53 am 01:53 Cloudy 25 -3.9 21 -6.1 85 85 N 14 22 30.47 1032 10 16.0934 0 0
2:53 am 02:53 Cloudy 25 -3.9 21 -6.1 85 85 N 9 15 30.49 1033 10 16.0934 0 0
3:53 am 03:53 Cloudy 25 -3.9 20 -6.7 81 81 NNW 8 13 30.49 1033 10 16.0934 0 0
4:37 am 04:37 Cloudy 25 -3.9 20 -6.7 81 81 NNW 6 9 30.59 1036 10 16.0934 0 0
4:53 am 04:53 Cloudy 25 -3.9 20 -6.7 81 81 NNW 8 13 30.5 1033 10 16.0934 0 0
5:53 am 05:53 Cloudy 24 -4.4 20 -6.7 84 84 N 6 9 30.51 1033 10 16.0934 0 0
6:05 am 06:05 Cloudy 24 -4.4 20 -6.7 84 84 N 8 13 30.6 1036 10 16.0934 0 0
6:21 am 06:21 Cloudy 24 -4.4 20 -6.7 84 84 NW 6 9 30.61 1036 10 16.0934 0 0
6:53 am 06:53 Cloudy 24 -4.4 21 -6.1 88 88 NW 6 9 30.53 1034 10 16.0934 0 0
7:53 am 07:53 Cloudy 25 -3.9 20 -6.7 81 81 N 3 6 30.53 1034 10 16.0934 0 0
8:15 am 08:15 Cloudy 25 -3.9 20 -6.7 81 81 W 6 9 30.61 1036 10 16.0934 0 0
8:53 am 08:53 Cloudy 25 -3.9 20 -6.7 81 81 W 8 13 30.56 1035 10 16.0934 0 0
9:07 am 09:07 Cloudy 25 -3.9 19 -7.2 78 78 W 9 15 30.62 1037 10 16.0934 0 0
9:53 am 09:53 Cloudy 24 -4.4 18 -7.8 77 77 W 8 13 30.57 1035 10 16.0934 0 0
10:53 am 10:53 Cloudy 25 -3.9 19 -7.2 78 78 W 8 13 30.55 1035 10 16.0934 0 0
11:53 am 11:53 Cloudy 27 -2.8 20 -6.7 75 75 WNW 3 6 30.53 1034 10 16.0934 0 0
12:27 pm 12:27 Cloudy 27 -2.8 19 -7.2 72 72 WSW 5 7 30.56 1035 10 16.0934 0 0
12:53 pm 12:53 Cloudy 27 -2.8 19 -7.2 72 72 SW 6 9 30.49 1032 10 16.0934 0 0
1:53 pm 13:53 Cloudy 30 -1.1 21 -6.1 69 69 SSE 10 17 30.43 1030 10 16.0934 0 0
2:53 pm 14:53 Cloudy 32 0 22 -5.6 66 66 S 8 13 30.39 1029 10 16.0934 0 0
3:48 pm 15:48 Cloudy 32 0 21 -6 64 64 SSE 10 17 30.38 1029 10 16.0934 0 0
3:53 pm 15:53 Cloudy 33 0.6 23 -5 66 66 SE 12 19 30.36 1028 10 16.0934 0 0
4:53 pm 16:53 Sunny 32 0 23 -5 69 69 ESE 13 20 30.33 1027 10 16.0934 0 0
5:53 pm 17:53 Sunny 29 -1.7 23 -5 78 78 E 13 20 30.32 1027 10 16.0934 0 0
6:53 pm 18:53 Clear 28 -2.2 22 -5.6 78 78 ESE 15 24 30.31 1026 10 16.0934 0 0
7:53 pm 19:53 Clear 27 -2.8 21 -6.1 78 78 ESE 17 28 30.28 1025 10 16.0934 0 0
8:53 pm 20:53 Clear 25 -3.9 20 -6.7 81 81 ESE 13 20 30.27 1025 10 16.0934 0 0
9:53 pm 21:53 Clear 23 -5 19 -7.2 85 85 ESE 13 20 30.25 1024 10 16.0934 0 0
10:53 pm 22:53 Clear 23 -5 19 -7.2 85 85 ESE 14 22 30.2 1023 10 16.0934 0 0
11:53 pm 23:53 Clear 22 -5.6 19 -7.2 89 89 ESE 16 26 30.15 1021 10 16.0934 0 0

Powered by AerisWeather